This is the latest recevied weather packets stored in our database for station/object W0AKY-13. If no packets are shown the sender has not sent any weather packets the latest 10 day(s).
| Time | Temp. | Humidity | Pressure | Rain* | Wind** | Luminosity | Snow |
|---|---|---|---|---|---|---|---|
| 1777996683 | 12.22° C | 50% | 1014.9 hPa | 0 mm | - | 129 W/m² | - |
| 1777996378 | 12.22° C | 51% | 1014.9 hPa | 0 mm | - | 104 W/m² | - |
| 1777996074 | 12.22° C | 55% | 1015 hPa | 0 mm | - | 101 W/m² | - |
| 1777995771 | 12.22° C | 55% | 1015 hPa | 0 mm | - | 112 W/m² | - |
| 1777995467 | 12.22° C | 59% | 1014.8 hPa | 0 mm | - | 103 W/m² | - |
| 1777995165 | 12.22° C | 59% | 1014.8 hPa | 0 mm | - | 116 W/m² | - |
| 1777994861 | 11.67° C | 58% | 1014.6 hPa | 0 mm | - | 124 W/m² | - |
| 1777994558 | 12.22° C | 61% | 1014.8 hPa | 0 mm | - | 121 W/m² | - |
| 1777994252 | 11.67° C | 61% | 1014.6 hPa | 0 mm | - | 145 W/m² | - |
| 1777993950 | 11.67° C | 61% | 1014.9 hPa | 0 mm | - | 105 W/m² | - |
| 1777993646 | 11.67° C | 61% | 1015.1 hPa | 0 mm | - | 93 W/m² | - |
| 1777993344 | 11.67° C | 62% | 1014.9 hPa | 0 mm | - | 86 W/m² | - |
| 1777993039 | 11.67° C | 64% | 1015 hPa | 0 mm | - | 81 W/m² | - |
| 1777992737 | 11.67° C | 64% | 1014.6 hPa | 0 mm | - | 66 W/m² | - |
| 1777992434 | 11.67° C | 67% | 1014.6 hPa | 0 mm | - | 98 W/m² | - |
| 1777992133 | 11.11° C | 68% | 1014.8 hPa | 0 mm | - | 98 W/m² | - |
| 1777991829 | 11.11° C | 75% | 1014.6 hPa | 0 mm | - | 110 W/m² | - |
| 1777991527 | 11.11° C | 75% | 1014.2 hPa | 0 mm | - | 85 W/m² | - |
| 1777991223 | 10.56° C | 73% | 1014.4 hPa | 0 mm | - | 88 W/m² | - |
| 1777990921 | 10.56° C | 74% | 1014.2 hPa | 0 mm | - | 73 W/m² | - |
| 1777990619 | 10.56° C | 74% | 1014.3 hPa | 0 mm | - | 70 W/m² | - |
| 1777990011 | 10.56° C | 77% | 1014 hPa | 0 mm | - | 66 W/m² | - |
| 1777989708 | 10.56° C | 78% | 1014.1 hPa | 0 mm | - | 59 W/m² | - |
| 1777989404 | 10° C | 78% | 1014.3 hPa | 0 mm | - | 51 W/m² | - |
| 1777989101 | 10° C | 80% | 1014.1 hPa | 0 mm | - | 50 W/m² | - |
* Rain latest hour (hover to see other rain measurements)
** Current wind speed in m/s (hover to see current wind gust speed)